Location: Rometta
(44.2000°N, 10.0500°E)
Time: 17:33:51
(UTC+00:00)

SJ 16-02 - Pass Details

Date: 20 January 2021
Orbit: 606 x 616 km, 75.0° (Epoch: 01 March)

Event Time Altitude Azimuth Distance (km) Brightness Sun altitude
Rises 18:47:59 0° 225° (SW) 2,867 5.4 -27.4°
Reaches altitude 10° 18:50:28 10° 237° (WSW) 1,965 4.6 -27.8°
Maximum altitude 18:54:17 29° 298° (WNW) 1,139 3.2 -28.5°
Enters shadow 18:55:52 23° 333° (NNW) 1,322 3.2 -28.8°
